| time (UTC) | temp F | wind direction | speed knots | gust knots | rain 1hr in | rain 24hr in | rain mn in | humidity % | barometer mb |
| 20260504050504 | 49 | 6 | 1.7 | 2.6 | 0.00 | 0.06 | 0.00 | 65 | 1019.8 |
| 20260504045505 | 50 | 188 | 2.6 | 3.5 | 0.00 | 0.06 | 0.00 | 67 | 1019.9 |
| 20260504045004 | 50 | 96 | 2.6 | 3.5 | 0.00 | 0.06 | 0.00 | 67 | 1019.7 |
| 20260504044504 | 49 | 108 | 1.7 | 3.5 | 0.00 | 0.06 | 0.00 | 68 | 1019.7 |
| 20260504044005 | 49 | 128 | 1.7 | 2.6 | 0.00 | 0.06 | 0.00 | 67 | 1019.6 |
| 20260504043504 | 49 | 223 | 1.7 | 2.6 | 0.00 | 0.06 | 0.00 | 66 | 1019.5 |
| 20260504043004 | 49 | 214 | 1.7 | 2.6 | 0.00 | 0.06 | 0.00 | 66 | 1019.5 |
| 20260504042505 | 49 | 188 | 0.9 | 1.7 | 0.00 | 0.06 | 0.00 | 65 | 1019.5 |
| 20260504042005 | 49 | 83 | 0.9 | 1.7 | 0.00 | 0.06 | 0.00 | 65 | 1019.5 |
| 20260504041504 | 49 | 80 | 1.7 | 1.7 | 0.00 | 0.06 | 0.00 | 65 | 1019.5 |
| 20260504041004 | 49 | 49 | 0.9 | 1.7 | 0.00 | 0.06 | 0.00 | 65 | 1019.4 |
| 20260504040005 | 48 | 359 | 1.7 | 2.6 | 0.00 | 0.06 | 0.00 | 66 | 1019.3 |
| 20260504035505 | 48 | 333 | 1.7 | 2.6 | 0.00 | 0.06 | 0.00 | 65 | 1019.3 |
| 20260504035005 | 48 | 309 | 1.7 | 2.6 | 0.00 | 0.06 | 0.00 | 65 | 1019.2 |
| 20260504034504 | 48 | 326 | 0.9 | 1.7 | 0.00 | 0.06 | 0.00 | 65 | 1019.0 |
| 20260504034005 | 48 | 342 | 1.7 | 2.6 | 0.00 | 0.06 | 0.00 | 65 | 1019.2 |
| 20260504033007 | 48 | 254 | 1.7 | 2.6 | 0.00 | 0.06 | 0.00 | 65 | 1019.0 |
| 20260504032505 | 48 | 278 | 1.7 | 2.6 | 0.00 | 0.06 | 0.00 | 65 | 1018.9 |
| 20260504031504 | 48 | 308 | 0.9 | 1.7 | 0.00 | 0.06 | 0.00 | 65 | 1019.0 |
| 20260504031005 | 48 | 270 | 0.0 | 0.9 | 0.00 | 0.06 | 0.00 | 65 | 1018.8 |
| 20260504030504 | 48 | 270 | 0.9 | 0.9 | 0.00 | 0.06 | 0.00 | 65 | 1018.9 |
| 20260504025505 | 48 | 281 | 0.9 | 2.6 | 0.00 | 0.06 | 0.00 | 65 | 1018.9 |
| 20260504025005 | 48 | 309 | 0.9 | 2.6 | 0.00 | 0.06 | 0.00 | 65 | 1019.0 |
| 20260504024504 | 48 | 351 | 0.9 | 2.6 | 0.00 | 0.06 | 0.00 | 66 | 1018.9 |
| 20260504024005 | 48 | 347 | 0.9 | 1.7 | 0.00 | 0.06 | 0.00 | 66 | 1018.9 |
| 20260504023506 | 48 | 99 | 0.9 | 1.7 | 0.00 | 0.06 | 0.00 | 66 | 1018.8 |
| 20260504023005 | 48 | 72 | 1.7 | 2.6 | 0.00 | 0.06 | 0.00 | 66 | 1018.7 |
| 20260504022504 | 48 | 67 | 1.7 | 2.6 | 0.00 | 0.06 | 0.00 | 65 | 1018.7 |
| 20260504022005 | 49 | 55 | 1.7 | 2.6 | 0.00 | 0.06 | 0.00 | 64 | 1018.7 |
| 20260504021505 | 49 | 46 | 1.7 | 2.6 | 0.00 | 0.06 | 0.00 | 63 | 1018.6 |
| 20260504021004 | 49 | 1 | 1.7 | 2.6 | 0.00 | 0.06 | 0.00 | 63 | 1018.8 |
| 20260504020505 | 49 | 250 | 1.7 | 2.6 | 0.00 | 0.06 | 0.00 | 62 | 1018.8 |
| 20260504020005 | 49 | 207 | 0.9 | 2.6 | 0.00 | 0.06 | 0.00 | 65 | 1018.6 |
| 20260504014505 | 49 | 166 | 0.9 | 0.9 | 0.00 | 0.06 | 0.00 | 65 | 1018.8 |
| 20260504013504 | 49 | 262 | 0.9 | 0.9 | 0.00 | 0.06 | 0.00 | 65 | 1018.6 |
| 20260504013005 | 49 | 310 | 0.9 | 2.6 | 0.00 | 0.06 | 0.00 | 65 | 1018.7 |
| 20260504012505 | 49 | 294 | 1.7 | 2.6 | 0.00 | 0.06 | 0.00 | 65 | 1018.7 |
| 20260504012004 | 49 | 273 | 0.9 | 2.6 | 0.00 | 0.06 | 0.00 | 66 | 1018.7 |
| 20260504011505 | 49 | 310 | 0.9 | 1.7 | 0.00 | 0.06 | 0.00 | 66 | 1018.7 |
| 20260504010005 | 48 | 142 | 1.7 | 2.6 | 0.00 | 0.06 | 0.00 | 66 | 1018.7 |
| 20260504004504 | 49 | 63 | 0.9 | 2.6 | 0.00 | 0.06 | 0.00 | 66 | 1018.7 |
| 20260504004005 | 49 | 159 | 0.9 | 1.7 | 0.00 | 0.06 | 0.00 | 66 | 1018.7 |
| 20260504003505 | 49 | 187 | 0.9 | 1.7 | 0.00 | 0.06 | 0.00 | 66 | 1018.6 |
| 20260504003005 | 49 | 106 | 0.9 | 1.7 | 0.00 | 0.06 | 0.00 | 65 | 1018.4 |
| 20260504002505 | 49 | 82 | 0.9 | 1.7 | 0.00 | 0.06 | 0.00 | 66 | 1018.3 |
| 20260504002004 | 49 | 74 | 0.9 | 0.9 | 0.00 | 0.06 | 0.00 | 66 | 1018.5 |
| 20260504001505 | 49 | 8 | 0.9 | 2.6 | 0.00 | 0.06 | 0.00 | 67 | 1018.4 |
| 20260504001005 | 49 | 33 | 0.9 | 2.6 | 0.00 | 0.06 | 0.00 | 66 | 1018.5 |
| 20260504000005 | 49 | 2 | 0.9 | 0.9 | 0.00 | 0.06 | 0.00 | 66 | 1018.7 |
| 20260503235504 | 49 | 25 | 0.9 | 0.9 | 0.00 | 0.06 | 0.00 | 66 | 1018.7 |
| 20260503235004 | 49 | 119 | 0.9 | 0.9 | 0.00 | 0.06 | 0.00 | 65 | 1018.6 |
| 20260503234505 | 49 | 224 | 0.9 | 1.7 | 0.00 | 0.06 | 0.00 | 65 | 1018.8 |
| 20260503234005 | 49 | 248 | 0.9 | 1.7 | 0.00 | 0.06 | 0.00 | 65 | 1018.8 |
| 20260503233504 | 49 | 291 | 1.7 | 1.7 | 0.00 | 0.06 | 0.00 | 65 | 1018.8 |
| 20260503233005 | 49 | 282 | 1.7 | 1.7 | 0.00 | 0.06 | 0.00 | 65 | 1018.8 |
| 20260503232505 | 49 | 253 | 1.7 | 2.6 | 0.00 | 0.06 | 0.00 | 65 | 1018.8 |
| 20260503232005 | 49 | 239 | 2.6 | 2.6 | 0.00 | 0.06 | 0.00 | 64 | 1019.0 |
| 20260503231505 | 49 | 215 | 2.6 | 4.3 | 0.00 | 0.06 | 0.00 | 64 | 1019.0 |
| 20260503231004 | 49 | 205 | 2.6 | 4.3 | 0.00 | 0.06 | 0.00 | 63 | 1019.0 |
| 20260503230510 | 50 | 222 | 1.7 | 3.5 | 0.00 | 0.06 | 0.00 | 63 | 1018.9 |
| 20260503230004 | 50 | 255 | 0.9 | 2.6 | 0.00 | 0.06 | 0.00 | 63 | 1018.9 |
| 20260503225505 | 50 | 244 | 0.9 | 2.6 | 0.00 | 0.06 | 0.00 | 63 | 1019.0 |
| 20260503225006 | 50 | 202 | 1.7 | 3.5 | 0.00 | 0.06 | 0.00 | 61 | 1019.1 |
| 20260503224504 | 51 | 218 | 1.7 | 3.5 | 0.00 | 0.06 | 0.00 | 60 | 1019.1 |
| 20260503223505 | 51 | 276 | 3.5 | 6.1 | 0.00 | 0.06 | 0.00 | 59 | 1019.1 |
| 20260503223004 | 51 | 235 | 3.5 | 6.1 | 0.00 | 0.06 | 0.00 | 60 | 1019.2 |
| 20260503222505 | 51 | 203 | 2.6 | 3.5 | 0.00 | 0.06 | 0.00 | 62 | 1019.1 |
| 20260503222005 | 51 | 321 | 2.6 | 5.2 | 0.00 | 0.06 | 0.00 | 61 | 1019.2 |
| 20260503221504 | 51 | 325 | 3.5 | 5.2 | 0.00 | 0.06 | 0.00 | 62 | 1019.1 |
| 20260503221005 | 51 | 338 | 3.5 | 5.2 | 0.00 | 0.06 | 0.00 | 63 | 1019.3 |
| 20260503220504 | 50 | 341 | 2.6 | 4.3 | 0.00 | 0.06 | 0.00 | 65 | 1019.3 |
| 20260503220009 | 50 | 242 | 1.7 | 4.3 | 0.00 | 0.06 | 0.00 | 66 | 1019.2 |
| 20260503215508 | 50 | 246 | 1.7 | 4.3 | 0.00 | 0.06 | 0.00 | 66 | 1019.2 |
| 20260503215008 | 50 | 272 | 0.9 | 1.7 | 0.00 | 0.06 | 0.00 | 67 | 1019.1 |
| 20260503214508 | 50 | 271 | 0.9 | 2.6 | 0.00 | 0.06 | 0.00 | 67 | 1019.2 |
| 20260503214007 | 49 | 263 | 1.7 | 4.3 | 0.00 | 0.06 | 0.00 | 67 | 1019.1 |
| 20260503213508 | 49 | 267 | 3.5 | 4.3 | 0.00 | 0.06 | 0.00 | 67 | 1019.0 |
| 20260503213008 | 49 | 262 | 3.5 | 4.3 | 0.00 | 0.06 | 0.00 | 67 | 1019.3 |
| 20260503212511 | 49 | 239 | 2.6 | 4.3 | 0.00 | 0.06 | 0.00 | 67 | 1019.3 |
| 20260503212008 | 49 | 245 | 3.5 | 4.3 | 0.00 | 0.06 | 0.00 | 67 | 1019.3 |
| 20260503211507 | 50 | 242 | 3.5 | 5.2 | 0.00 | 0.06 | 0.00 | 66 | 1019.3 |
| 20260503211008 | 50 | 223 | 3.5 | 5.2 | 0.00 | 0.06 | 0.00 | 66 | 1019.3 |
| 20260503210508 | 50 | 32 | 1.7 | 4.3 | 0.00 | 0.06 | 0.00 | 67 | 1019.1 |
| 20260503205508 | 50 | 271 | 1.7 | 3.5 | 0.00 | 0.06 | 0.06 | 68 | 1019.4 |
| 20260503204509 | 50 | 233 | 2.6 | 4.3 | 0.00 | 0.06 | 0.06 | 67 | 1019.4 |
| 20260503204008 | 50 | 223 | 2.6 | 5.2 | 0.00 | 0.06 | 0.06 | 67 | 1019.5 |
| 20260503203508 | 51 | 242 | 2.6 | 5.2 | 0.00 | 0.06 | 0.06 | 67 | 1019.4 |
| 20260503203008 | 51 | 298 | 1.7 | 3.5 | 0.00 | 0.06 | 0.06 | 68 | 1019.5 |
| 20260503202508 | 50 | 238 | 3.5 | 4.3 | 0.00 | 0.06 | 0.06 | 68 | 1019.5 |
| 20260503202007 | 51 | 223 | 3.5 | 5.2 | 0.00 | 0.06 | 0.06 | 67 | 1019.4 |
| 20260503201508 | 51 | 214 | 3.5 | 5.2 | 0.00 | 0.06 | 0.06 | 65 | 1019.5 |
| 20260503201008 | 52 | 218 | 2.6 | 4.3 | 0.00 | 0.06 | 0.06 | 63 | 1019.6 |
| 20260503200508 | 52 | 235 | 3.5 | 4.3 | 0.00 | 0.06 | 0.06 | 59 | 1019.4 |
| 20260503200008 | 53 | 245 | 4.3 | 6.1 | 0.00 | 0.06 | 0.06 | 59 | 1019.5 |
| 20260503195508 | 53 | 254 | 4.3 | 6.1 | 0.00 | 0.06 | 0.06 | 58 | 1019.5 |
| 20260503195008 | 53 | 275 | 4.3 | 6.1 | 0.00 | 0.06 | 0.06 | 58 | 1019.6 |
| 20260503194508 | 53 | 359 | 4.3 | 9.6 | 0.00 | 0.06 | 0.06 | 57 | 1019.4 |
| 20260503194008 | 53 | 15 | 5.2 | 9.6 | 0.00 | 0.06 | 0.06 | 57 | 1019.5 |
| 20260503193510 | 53 | 10 | 4.3 | 7.8 | 0.00 | 0.06 | 0.06 | 57 | 1019.5 |
| 20260503192508 | 53 | 1 | 4.3 | 7.0 | 0.00 | 0.06 | 0.06 | 57 | 1019.5 |
| 20260503192008 | 54 | 2 | 6.1 | 7.8 | 0.00 | 0.06 | 0.06 | 56 | 1019.5 |
| 20260503191507 | 54 | 14 | 5.2 | 7.8 | 0.00 | 0.06 | 0.06 | 56 | 1019.5 |
| 20260503191008 | 54 | 10 | 5.2 | 7.8 | 0.00 | 0.06 | 0.06 | 54 | 1019.5 |
| 20260503190008 | 55 | 328 | 7.8 | 9.6 | 0.00 | 0.06 | 0.06 | 54 | 1019.5 |
| 20260503185008 | 54 | 353 | 7.0 | 9.6 | 0.00 | 0.06 | 0.06 | 57 | 1019.2 |
| 20260503184508 | 54 | 2 | 7.0 | 7.8 | 0.00 | 0.06 | 0.06 | 57 | 1019.4 |
| 20260503184013 | 54 | 7 | 5.2 | 7.8 | 0.00 | 0.06 | 0.06 | 57 | 1019.3 |
| 20260503183508 | 54 | 4 | 5.2 | 7.0 | 0.00 | 0.06 | 0.06 | 57 | 1019.5 |
| 20260503183008 | 54 | 357 | 6.1 | 9.6 | 0.00 | 0.06 | 0.06 | 57 | 1019.2 |
| 20260503182507 | 54 | 6 | 7.8 | 9.6 | 0.00 | 0.06 | 0.06 | 55 | 1019.4 |
| 20260503181508 | 55 | 23 | 5.2 | 7.0 | 0.00 | 0.06 | 0.06 | 54 | 1019.0 |
| 20260503181008 | 56 | 353 | 4.3 | 6.1 | 0.00 | 0.06 | 0.06 | 52 | 1019.0 |
| 20260503180508 | 56 | 326 | 4.3 | 5.2 | 0.00 | 0.06 | 0.06 | 50 | 1019.1 |
| 20260503180008 | 56 | 323 | 4.3 | 5.2 | 0.00 | 0.06 | 0.06 | 50 | 1019.0 |
| 20260503175508 | 57 | 299 | 4.3 | 6.1 | 0.00 | 0.06 | 0.06 | 51 | 1019.0 |
| 20260503175008 | 56 | 290 | 3.5 | 6.1 | 0.00 | 0.06 | 0.06 | 51 | 1018.8 |
| 20260503173508 | 57 | 289 | 1.7 | 2.6 | 0.00 | 0.06 | 0.06 | 51 | 1018.7 |
| 20260503173008 | 57 | 297 | 2.6 | 3.5 | 0.00 | 0.06 | 0.06 | 51 | 1018.7 |
| 20260503172008 | 57 | 316 | 1.7 | 3.5 | 0.00 | 0.06 | 0.06 | 49 | 1018.6 |
| 20260503171508 | 58 | 276 | 1.7 | 2.6 | 0.00 | 0.06 | 0.06 | 48 | 1018.4 |
| 20260503171007 | 58 | 271 | 2.6 | 3.5 | 0.00 | 0.06 | 0.06 | 47 | 1018.4 |
| 20260503170508 | 58 | 278 | 3.5 | 4.3 | 0.00 | 0.06 | 0.06 | 47 | 1018.4 |
| 20260503150507 | 58 | 257 | 7.0 | 10.4 | 0.00 | 0.06 | 0.06 | 48 | 1018.2 |
| 20260503131007 | 56 | 267 | 11.3 | 13.0 | 0.00 | 0.06 | 0.06 | 55 | 1018.8 |
| 20260503130508 | 56 | 281 | 12.2 | 13.9 | 0.00 | 0.06 | 0.06 | 55 | 1018.8 |
| 20260503110509 | 50 | 226 | 7.8 | 7.8 | 0.04 | 0.07 | 0.06 | 84 | 1020.1 |
| 20260503090507 | 51 | 104 | 6.1 | 9.6 | 0.00 | 0.01 | 0.00 | 74 | 1019.4 |
| 20260503081508 | 52 | 106 | 5.2 | 8.7 | 0.00 | 0.01 | 0.00 | 78 | 1018.9 |
| 20260503081008 | 52 | 119 | 5.2 | 8.7 | 0.00 | 0.01 | 0.00 | 78 | 1018.6 |
| 20260503080507 | 52 | 95 | 4.3 | 7.8 | 0.00 | 0.01 | 0.00 | 80 | 1018.8 |
| 20260503072007 | 54 | 121 | 1.7 | 2.6 | 0.00 | 0.01 | 0.00 | 76 | 1018.2 |
| 20260503071508 | 54 | 102 | 1.7 | 2.6 | 0.00 | 0.01 | 0.00 | 76 | 1017.8 |
| 20260503071008 | 53 | 90 | 1.7 | 2.6 | 0.00 | 0.01 | 0.00 | 75 | 1017.7 |
| 20260503070508 | 54 | 75 | 1.7 | 2.6 | 0.00 | 0.01 | 0.00 | 75 | 1017.8 |
| 20260503054508 | 52 | 89 | 2.6 | 4.3 | 0.00 | 0.12 | 0.00 | 77 | 1017.7 |
| 20260503054007 | 52 | 95 | 2.6 | 4.3 | 0.00 | 0.12 | 0.00 | 77 | 1017.6 |
| 20260503053508 | 52 | 105 | 2.6 | 3.5 | 0.00 | 0.12 | 0.00 | 77 | 1017.6 |
| 20260503053009 | 51 | 114 | 2.6 | 3.5 | 0.00 | 0.12 | 0.00 | 77 | 1017.6 |
| 20260503052508 | 51 | 62 | 3.5 | 4.3 | 0.00 | 0.12 | 0.00 | 77 | 1017.7 |
| 20260503052009 | 51 | 59 | 2.6 | 4.3 | 0.00 | 0.12 | 0.00 | 76 | 1017.7 |